Location: Arboucave
(43.6130°N, 0.4343°W)
Time: 12:57:04
(UTC+00:00)

Cosmos 2278 Rocket - Pass Details

Date: 17 November 2025
Orbit: 841 x 843 km, 71.0° (Epoch: 11 December)

Event Time Altitude Azimuth Distance (km) Brightness Sun altitude
Rises 17:48:25 0° 204° (SSW) 3,383 5.9 -13.4°
Reaches altitude 10° 17:50:50 10° 205° (SSW) 2,452 5.2 -13.8°
Maximum altitude 17:56:29 86° 294° (WNW) 849 2.2 -14.8°
Drops below altitude 10° 18:02:10 10° 24° (NNE) 2,467 4.3 -15.8°
Enters shadow 18:02:52 - 25° (NNE) 2,733 4.5 -15.9°
